[ ตารางข้อมูล ] [ Min-Max ] [ วันนี้4 ] [ วันนี้2 ] [ เทียบ3วัน A ] [ เทียบ4วัน B ]   

วันนี้2   [ ◀ ช่วงเก่ากว่า ] [ ช่วงที่ 197 ] [ ช่วงใหม่กว่า ▶ ] [ ล่าสุด ]    [ 3 ชั่วโมง ] [ 6 ชั่วโมง ] [ 12 ชั่วโมง ] [ 24 ชั่วโมง ]   วันนี้2

อุณภูมิตู้ Knockdown4529  ราย 3 ชั่วโมง  ที่วัดได้ ในช่วงวันเวลา 10/04/2026 (02:51) ถึง 10/04/2026 (05:51) 
ความชื้นในตู้ Knockdown4529  ราย 3 ชั่วโมง  ที่วัดได้ ในช่วงวันเวลา 10/04/2026 (02:51) ถึง 10/04/2026 (05:51) 

 
DS18B20SHTC3 
IDDate d/m/Y & Timedata1
สูง
data2
ต่ำ
data3
นอก
temp
pcb
hum
pcb
Time
 10460  10/04/2026 05:48:55  26.5  26.6  25.2  26.4  70.6  05:48 
 10459  10/04/2026 05:44:14  26.5  26.6  25.2  26.5  70.7  05:44 
 10458  10/04/2026 05:39:33  26.5  26.6  25.2  26.6  70.6  05:39 
 10457  10/04/2026 05:34:51  26.5  26.6  25.2  26.6  70.6  05:34 
 10456  10/04/2026 05:30:10  26.5  26.6  25.2  26.4  70.5  05:30 
 10455  10/04/2026 05:25:29  26.6  26.6  25.2  26.5  70.6  05:25 
 10454  10/04/2026 05:20:47  26.6  26.7  25.2  26.5  70.5  05:20 
 10453  10/04/2026 05:16:06  26.6  26.7  25.1  26.5  70.6  05:16 
 10452  10/04/2026 05:11:24  26.6  26.7  25.1  26.5  70.7  05:11 
 10451  10/04/2026 05:06:43  26.6  26.7  25.2  26.6  70.6  05:06 
 10450  10/04/2026 05:02:00  26.6  26.8  25.4  26.6  70.5  05:02 
 10449  10/04/2026 04:57:18  26.6  26.8  25.2  26.5  70.6  04:57 
 10448  10/04/2026 04:52:35  26.6  26.8  25.1  26.6  70.5  04:52 
 10447  10/04/2026 04:47:51  26.6  26.8  25.2  26.6  70.5  04:47 
 10446  10/04/2026 04:43:10  26.7  26.8  25.2  26.6  70.6  04:43 
 10445  10/04/2026 04:38:25  26.7  26.8  25.2  26.6  70.5  04:38 
 10444  10/04/2026 04:33:43  26.7  26.8  25.4  26.7  70.5  04:33 
 10443  10/04/2026 04:29:01  26.7  26.8  25.3  26.6  70.6  04:29 
 10442  10/04/2026 04:24:19  26.7  26.8  25.3  26.6  70.6  04:24 
 10441  10/04/2026 04:19:37  26.8  26.8  25.3  26.7  70.6  04:19 
 10440  10/04/2026 04:14:55  26.8  26.9  25.4  26.7  70.6  04:14 
 10439  10/04/2026 04:10:13  26.8  26.9  25.3  26.6  70.6  04:10 
 10438  10/04/2026 04:05:31  26.8  26.9  25.3  26.6  70.5  04:05 
 10437  10/04/2026 04:00:51  26.8  26.9  25.4  26.8  70.7  04:00 

Data every 5 minute.


ใช้เวลาประมวลผล 0.00193 วินาที